[[{"header":{"parameterUnit":"m.s-1","parameterCategory":1,"la1":30.2991,"la2":30.254,"lo1":-89.0895,"lo2":-89.0444,"dy":0.0017,"dx":0.0017,"nx":28,"ny":28,"refTime":"2025-05-22T09:00:00:Z","depth":0,"parameterNumber":2,"parameterNumberName":"U-component_of_WINDS"},"data":[0,0,0,0,0,0,0,0,0,0,0,0,0,0,0,0,0,0,0,0,0,0,0,0,0,0,0,0,0,0,0,0,0,0,0,0,0,0,0,0,0,0,0,0,0,0,0,0,0,0,0,0,0,0,0,0,0,0,-0.9901,-0.9901,0,-0.9951,-0.9952,-0.9952,-0.9917,-0.9915,-0.9913,-0.9912,-0.9965,-0.9968,-0.9971,0,0,0,0,0,0,0,0,0,0,0,0,0,-0.9775,-0.9777,-0.99,-0.9901,-0.9902,-0.9951,-0.9952,-0.9952,-0.9917,-0.9915,-0.9913,-0.9911,-0.9964,-0.9967,-0.9971,0,0,0,0,0,0,0,0,0,0,0,0,0,-0.9828,-0.9778,-0.99,-0.989,-0.989,-0.9951,-0.9952,-0.9952,-0.9917,-0.9915,-0.9913,-0.991,-0.9963,-0.9967,-0.9971,-1.0046,0,0,-0.9985,-0.9986,0,0,0,0,0,0,0,0,-0.9825,-0.9832,-0.9891,-0.9891,-0.989,-0.9925,-0.9926,-0.9984,-0.9918,-0.9907,-0.9912,-0.9909,-0.9954,-0.9959,-0.9973,-1.0048,-1.0051,-0.9985,-0.9988,-0.9989,-0.9991,0,0,0,0,0,0,0,-0.9821,-0.983,-0.992,-0.9892,-0.9892,-0.9883,-0.9888,-0.9937,-0.9943,-0.9908,-0.9905,-0.9912,-0.9953,-0.9969,-0.9974,-1.0051,-0.9985,-0.9989,-0.9991,-0.9993,-1.0189,-1.0192,0,0,0,0,0,0,-0.9818,-0.9827,-0.9919,-0.9922,-0.9851,-0.9887,-0.9893,-0.9916,-0.9942,-0.9944,-0.9914,-0.991,-0.9963,-0.9969,-0.9976,-1.0064,-0.9989,-0.9993,-0.9996,-1.0187,-1.019,-1.0193,0,0,0,0,0,0,-0.9816,-0.9827,-0.9917,-0.9874,-0.9885,-0.9892,-0.9919,-0.9919,-0.9935,-0.9947,-0.9948,-0.9929,-0.9961,-0.997,-1.0028,-1.0066,-0.9995,-0.9999,-1.0184,-1.0188,-1.0191,-1.0242,0,0,0,0,0,0,-0.9812,-0.9826,-0.9854,-0.9875,-0.9887,-0.9968,-0.9921,-0.9921,-0.9942,-0.9938,-0.9962,-0.9963,-0.996,-1.0022,-1.0033,-1.007,-1.0003,-1.018,-1.0186,-1.019,-1.0237,-1.0247,-1.0256,0,0,0,0,0,-0.9808,-0.9867,-0.9856,-0.9867,-0.9922,-0.9971,-0.9978,-0.9973,-0.9945,-0.9974,-0.9981,-0.9962,-1.006,-1.0029,-1.004,-1.008,-1.0178,-1.0184,-1.019,-1.0233,-1.0245,-1.0256,0,0,0,0,0,0,-0.9851,-0.9869,-0.9857,-0.9925,-0.9946,-0.9964,-1.0,-0.9986,-1.0016,-1.0011,-1.0003,-1.0009,-1.007,-1.0081,-1.0045,-1.0153,-1.0115,-1.0123,-1.0144,-1.0156,-1.0165,-1.0161,-1.0006,0,0,0,0,0,-0.9868,-0.9905,-0.992,-0.9978,-0.9989,-0.9993,-1.0014,-1.0008,-1.003,-1.0039,-1.0051,-1.0074,-1.0109,-1.0133,-1.0167,-1.0239,-1.0243,-1.0272,-1.0281,-1.0289,-1.0296,-1.0334,-1.0347,-1.0212,-1.0212,-1.0212,0,0,-0.9904,-0.9919,-0.9943,-0.9987,-1.0003,-1.0042,-1.0001,-1.0044,-1.0073,-1.0046,-1.0101,-1.0111,-1.0136,-1.0202,-1.0231,-1.0212,-1.0334,-1.0296,-1.0302,-1.0305,-1.0342,-1.0355,-1.0366,-1.0216,-1.0215,-1.0215,0,0,-0.999,-1.0005,-1.0055,-1.0072,-1.0096,-1.0098,-1.011,-1.0131,-1.0136,-1.0192,-1.0172,-1.0207,-1.0268,-1.0287,-1.0304,-1.0397,-1.038,-1.0408,-1.0457,-1.0494,-1.0505,-1.0514,-1.0547,-1.0559,-1.0415,-1.0415,-1.0415,0,-1.0032,-1.0089,-1.0082,-1.0127,-1.0146,-1.0123,-1.0174,-1.0191,-1.0225,-1.024,-1.0218,-1.0295,-1.031,-1.0379,-1.0401,-1.0416,-1.043,-1.0405,-1.0504,-1.0513,-1.0522,-1.0553,-1.0565,-1.0418,-1.0418,-1.0418,-1.0417,0,-1.0139,-1.018,-1.0217,-1.025,-1.0274,-1.0321,-1.0322,-1.0347,-1.0339,-1.0344,-1.0401,-1.0418,-1.0454,-1.0471,-1.0464,-1.0539,-1.0526,-1.0505,-1.0466,-1.0538,-1.0567,-1.0579,-1.0423,-1.0422,-1.0421,-1.042,0,0,-1.0253,-1.0282,-1.0296,-1.031,-1.0336,-1.0367,-1.0413,-1.0448,-1.047,-1.0495,-1.0533,-1.0586,-1.0566,-1.0585,-1.058,-1.0613,-1.0685,-1.0587,-1.0588,-1.0604,-1.0768,-1.0784,-1.0798,-1.0674,-1.0676,-1.0678,-1.0766,0,-1.034,-1.042,-1.0415,-1.049,-1.0527,-1.0506,-1.0546,-1.0566,-1.0572,-1.0604,-1.061,-1.0647,-1.0618,-1.063,-1.0662,-1.0669,-1.0717,-1.0663,-1.071,-1.0711,-1.0703,-1.0813,-1.083,-1.0911,-1.0777,-1.0779,-1.078,0,-1.0451,-1.0479,-1.0558,-1.0577,-1.0593,-1.0629,-1.066,-1.0692,-1.0714,-1.0716,-1.0738,-1.0727,-1.0774,-1.0734,-1.0799,-1.0762,-1.0781,-1.0787,-1.079,-1.0794,-1.075,-1.0819,-1.0937,-1.0949,-1.0798,-1.0797,-1.0795,0,-1.0526,-1.0583,-1.0637,-1.0651,-1.0675,-1.0701,-1.0712,-1.0732,-1.0754,-1.0781,-1.0795,-1.0828,-1.0847,-1.0873,-1.0871,-1.0843,-1.0936,-1.0897,-1.0939,-1.0939,-1.0959,-1.0958,-1.1082,-1.0972,-1.0972,-1.0972,-1.0972,0,-1.0622,-1.0671,-1.0671,-1.0704,-1.0759,-1.0753,-1.0807,-1.0815,-1.0833,-1.0868,-1.0852,-1.0885,-1.0882,-1.0915,-1.0915,-1.0967,-1.0976,-1.0979,-1.0978,-1.098,-1.0979,-1.0991,-1.0985,-1.0975,-1.0974,-1.0974,-1.0973,0,-1.0714,-1.0716,-1.0774,-1.0792,-1.0798,-1.0837,-1.0853,-1.0884,-1.0888,-1.0933,-1.0943,-1.0949,-1.0988,-1.0989,-1.1033,-1.1033,-1.1097,-1.109,-1.109,-1.1088,-1.1129,-1.1125,-1.1265,-1.1283,-1.1163,-1.1164,-1.1165,0,-1.0776,-1.0813,-1.0835,-1.0857,-1.0869,-1.0905,-1.0927,-1.0922,-1.0946,-1.0974,-1.1002,-1.1039,-1.1068,-1.113,-1.1139,-1.1173,-1.1166,-1.1213,-1.1171,-1.1172,-1.1166,-1.1164,-1.1167,-1.1221,-1.1222,-1.1223,-1.1224,0,-1.0884,-1.0883,-1.0914,-1.0946,-1.0972,-1.0997,-1.102,-1.1039,-1.1038,-1.1065,-1.1103,-1.1126,-1.1171,-1.1208,-1.124,-1.1252,-1.1238,-1.1238,-1.1249,-1.1251,-1.1248,-1.1249,-1.1111,-1.1234,-1.1233,-1.1232,-1.1232,-1.1232,-1.0962,-1.0993,-1.1014,-1.1049,-1.1066,-1.1088,-1.1119,-1.1126,-1.1158,-1.1194,-1.119,-1.1233,-1.1255,-1.1297,-1.1312,-1.1345,-1.1329,-1.1346,-1.135,-1.1354,-1.1358,-1.1244,-1.1351,-1.1351,-1.1351,-1.1351,-1.135,0,-1.1068,-1.108,-1.1113,-1.1146,-1.1174,-1.1158,-1.1183,-1.1207,-1.1245,-1.1266,-1.1295,-1.1339,-1.1375,-1.1386,-1.1421,-1.1445,-1.144,-1.1455,-1.1452,-1.1455,-1.1371,-1.1357,-1.1459,-1.1459,-1.1458,-1.1458,-1.1458,-1.1458,-1.1127,-1.118,-1.1181,-1.1242,-1.1254,-1.1295,-1.1311,-1.1331,-1.1347,-1.1398,-1.1427,-1.1434,-1.1451,-1.1487,-1.1519,-1.1521,-1.1534,-1.1552,-1.1551,-1.1472,-1.1461,-1.1451,-1.1438,-1.1555,-1.1555,-1.1633,-1.1634,-1.1634]},{"header":{"parameterUnit":"m.s-1","parameterCategory":1,"la1":30.2991,"la2":30.254,"lo1":-89.0895,"lo2":-89.0444,"dy":0.0017,"dx":0.0017,"nx":28,"ny":28,"refTime":"2025-05-22T09:00:00:Z","depth":0,"parameterNumber":3,"parameterNumberName":"V-component_of_WINDS"},"data":[0,0,0,0,0,0,0,0,0,0,0,0,0,0,0,0,0,0,0,0,0,0,0,0,0,0,0,0,0,0,0,0,0,0,0,0,0,0,0,0,0,0,0,0,0,0,0,0,0,0,0,0,0,0,0,0,0,0,-2.1226,-2.1226,0,-2.1195,-2.1195,-2.1195,-2.1143,-2.1143,-2.1142,-2.1141,-2.1109,-2.1109,-2.1109,0,0,0,0,0,0,0,0,0,0,0,0,0,-2.124,-2.1241,-2.1226,-2.1226,-2.1225,-2.1195,-2.1195,-2.1194,-2.1144,-2.1143,-2.1141,-2.114,-2.1109,-2.1109,-2.1109,0,0,0,0,0,0,0,0,0,0,0,0,0,-2.1224,-2.1241,-2.1226,-2.1196,-2.1194,-2.1195,-2.1195,-2.1194,-2.1144,-2.1142,-2.1141,-2.114,-2.1109,-2.1109,-2.1109,-2.1137,0,0,-2.1109,-2.1109,0,0,0,0,0,0,0,0,-2.1225,-2.1224,-2.1201,-2.1199,-2.1195,-2.1172,-2.1188,-2.1175,-2.1144,-2.1163,-2.1141,-2.1139,-2.1131,-2.1129,-2.1126,-2.1136,-2.1135,-2.1109,-2.1109,-2.1109,-2.1109,0,0,0,0,0,0,0,-2.1227,-2.1225,-2.1214,-2.1201,-2.1197,-2.1184,-2.118,-2.1185,-2.1155,-2.1161,-2.1157,-2.1154,-2.1129,-2.1126,-2.1125,-2.1134,-2.1109,-2.1109,-2.1109,-2.1109,-2.1163,-2.1164,0,0,0,0,0,0,-2.1232,-2.1226,-2.1215,-2.1213,-2.1207,-2.1185,-2.1181,-2.1181,-2.1155,-2.115,-2.1156,-2.1152,-2.1127,-2.1125,-2.1124,-2.1154,-2.1109,-2.1109,-2.1109,-2.1162,-2.1163,-2.1165,0,0,0,0,0,0,-2.1233,-2.1232,-2.1216,-2.1219,-2.1216,-2.1186,-2.1187,-2.1181,-2.1178,-2.1151,-2.1145,-2.1158,-2.1126,-2.1124,-2.1134,-2.1152,-2.1109,-2.1109,-2.116,-2.1162,-2.1164,-2.1215,0,0,0,0,0,0,-2.1233,-2.1232,-2.1243,-2.1219,-2.1216,-2.1227,-2.1188,-2.1181,-2.1178,-2.1174,-2.1152,-2.1147,-2.1125,-2.1134,-2.1134,-2.1151,-2.1109,-2.1158,-2.1161,-2.1164,-2.1212,-2.1219,-2.1225,0,0,0,0,0,-2.1234,-2.1259,-2.1244,-2.1243,-2.1229,-2.1228,-2.1226,-2.12,-2.118,-2.119,-2.1172,-2.1148,-2.115,-2.1136,-2.1135,-2.1153,-2.1157,-2.116,-2.1163,-2.1209,-2.1217,-2.1224,0,0,0,0,0,0,-2.1286,-2.1255,-2.1238,-2.1256,-2.1245,-2.122,-2.1232,-2.121,-2.1205,-2.12,-2.1168,-2.1163,-2.1177,-2.1166,-2.115,-2.1178,-2.115,-2.1153,-2.1184,-2.1192,-2.1199,-2.12,-2.1109,0,0,0,0,0,-2.1299,-2.1302,-2.1275,-2.1293,-2.1289,-2.1262,-2.126,-2.1241,-2.1228,-2.1223,-2.1206,-2.1195,-2.1193,-2.1192,-2.1189,-2.121,-2.1204,-2.1222,-2.1228,-2.1234,-2.1236,-2.1245,-2.1252,-2.1175,-2.1175,-2.1175,0,0,-2.1327,-2.1311,-2.1315,-2.1303,-2.1293,-2.1295,-2.1258,-2.1263,-2.1264,-2.1224,-2.1232,-2.1219,-2.1204,-2.1219,-2.1225,-2.121,-2.1256,-2.1238,-2.1242,-2.1242,-2.1249,-2.1256,-2.1263,-2.1178,-2.1177,-2.1177,0,0,-2.1379,-2.1368,-2.1381,-2.1371,-2.1355,-2.1336,-2.1339,-2.1317,-2.1307,-2.1314,-2.1284,-2.1285,-2.1283,-2.1272,-2.1267,-2.1314,-2.129,-2.1314,-2.1348,-2.1356,-2.1362,-2.1367,-2.1382,-2.1388,-2.1317,-2.1317,-2.1317,0,-2.1416,-2.1419,-2.139,-2.1397,-2.1392,-2.1356,-2.1368,-2.136,-2.1344,-2.1341,-2.1325,-2.132,-2.1308,-2.1319,-2.133,-2.1328,-2.1329,-2.1316,-2.1364,-2.1369,-2.1373,-2.1387,-2.1393,-2.132,-2.132,-2.1319,-2.1319,0,-2.1464,-2.1466,-2.1479,-2.1463,-2.146,-2.147,-2.1443,-2.1443,-2.1424,-2.1407,-2.1414,-2.1398,-2.1389,-2.1391,-2.1373,-2.1399,-2.139,-2.137,-2.1341,-2.1384,-2.1396,-2.1401,-2.1324,-2.1323,-2.1322,-2.1322,0,0,-2.1547,-2.1515,-2.152,-2.1512,-2.1491,-2.1493,-2.15,-2.1492,-2.1492,-2.1482,-2.1487,-2.1485,-2.1465,-2.1459,-2.1439,-2.1447,-2.1483,-2.1425,-2.1424,-2.1434,-2.1509,-2.1524,-2.1531,-2.1468,-2.1468,-2.1469,-2.151,0,-2.1593,-2.1604,-2.1578,-2.1595,-2.1596,-2.1562,-2.1568,-2.1555,-2.154,-2.1538,-2.152,-2.1519,-2.1494,-2.149,-2.1496,-2.1477,-2.1497,-2.1474,-2.147,-2.147,-2.1473,-2.1537,-2.1553,-2.1592,-2.1515,-2.1515,-2.1516,0,-2.1649,-2.1641,-2.1658,-2.1635,-2.1634,-2.164,-2.163,-2.1629,-2.1614,-2.1602,-2.1595,-2.1571,-2.1576,-2.1549,-2.1554,-2.1539,-2.1536,-2.1526,-2.1527,-2.1525,-2.1495,-2.1535,-2.1604,-2.161,-2.1524,-2.1523,-2.1523,0,-2.1706,-2.17,-2.1708,-2.1703,-2.1677,-2.1681,-2.1671,-2.1654,-2.165,-2.1641,-2.1638,-2.163,-2.1626,-2.162,-2.1594,-2.1577,-2.1602,-2.1573,-2.159,-2.1591,-2.1596,-2.1596,-2.1664,-2.1597,-2.1597,-2.1597,-2.1597,0,-2.1759,-2.177,-2.1733,-2.1739,-2.175,-2.172,-2.1732,-2.1718,-2.1703,-2.1704,-2.1674,-2.1676,-2.1643,-2.1641,-2.1621,-2.1627,-2.1626,-2.1615,-2.1609,-2.1617,-2.1618,-2.1613,-2.1609,-2.1598,-2.1598,-2.1598,-2.1597,0,-2.1824,-2.18,-2.1807,-2.1781,-2.1775,-2.1784,-2.1762,-2.1765,-2.1748,-2.1749,-2.1748,-2.172,-2.1716,-2.169,-2.168,-2.1666,-2.1679,-2.1669,-2.1684,-2.168,-2.1699,-2.1697,-2.1765,-2.1772,-2.1702,-2.1703,-2.1703,0,-2.1859,-2.1867,-2.1842,-2.184,-2.1831,-2.183,-2.1825,-2.1796,-2.1793,-2.1776,-2.1781,-2.1774,-2.1767,-2.1762,-2.174,-2.1732,-2.172,-2.1744,-2.1718,-2.1725,-2.1718,-2.1717,-2.1717,-2.175,-2.1751,-2.1751,-2.1752,0,-2.1923,-2.1911,-2.1906,-2.1897,-2.1892,-2.1884,-2.1873,-2.1874,-2.1842,-2.1839,-2.1834,-2.1829,-2.1818,-2.1811,-2.1799,-2.1787,-2.1764,-2.176,-2.1764,-2.1771,-2.1778,-2.1773,-2.1698,-2.1759,-2.1758,-2.1758,-2.1757,-2.1757,-2.1973,-2.1978,-2.196,-2.1956,-2.1945,-2.1935,-2.1937,-2.1919,-2.1914,-2.1903,-2.1886,-2.1883,-2.1867,-2.1848,-2.1838,-2.1834,-2.1821,-2.1826,-2.1827,-2.1828,-2.1832,-2.178,-2.1832,-2.1832,-2.1832,-2.1831,-2.1831,0,-2.2034,-2.2021,-2.2017,-2.2003,-2.1999,-2.1978,-2.1965,-2.1963,-2.196,-2.1947,-2.194,-2.1934,-2.1927,-2.1904,-2.1895,-2.1896,-2.1885,-2.1894,-2.1893,-2.189,-2.1845,-2.1842,-2.1903,-2.1903,-2.1903,-2.1903,-2.1903,-2.1903,-2.2065,-2.2071,-2.2056,-2.2056,-2.2043,-2.204,-2.2034,-2.2025,-2.2014,-2.2008,-2.2002,-2.1987,-2.197,-2.1958,-2.195,-2.1944,-2.1941,-2.1953,-2.1943,-2.1901,-2.1894,-2.1887,-2.1884,-2.1953,-2.1953,-2.1988,-2.1989,-2.1989]}]]